User: anonymous   Login
Location: ECC Obs
(38.4314°N, 90.9815°W)
Time: 21:01:34
(UTC-05:00)
Language:

Explorer 11/Cluster Stage 4 - Orbit

View from above orbital plane
View from above orbital plane
View from above satellite
View from above satellite

Ground track
Ground track

The orbit data is extracted from the following two-line orbital elements,

1   107U 61013A   20096.40870321 +.00000614 +00000-0 +62663-4 0  9999
2   107 028.7866 233.9828 0546707 150.7705 212.4633 14.08922694955461
Epoch (UTC): 05 April 2020 09:48:31
Eccentricity: 0.0546707
inclination: 28.7866°
perigee height: 467 km
apogee height: 1259 km
right ascension of ascending node: 233.9828°
argument of perigee: 150.7705°
revolutions per day: 14.08922694
mean anomaly at epoch: 212.4633°
orbit number at epoch: 95546

The dashed part of the orbit path shows where the satellite is in the earth's shadow,  

DLR